Home   Weather   Columbus   Past weeks

Flag for USA Past Weather in Columbus, Georgia, USA — Yesterday and Last 2 Weeks

Now
37 °F

Clear.


Feels Like: 37 °F
Forecast: 37 / 65 °F
Wind: No wind

Location: Columbus Metropolitan Airport

Current Time: Feb 26, 2017 at 7:26:36 am

Latest Report: Feb 26, 2017 at 6:51 am


Visibility: 10 mi

Pressure: 30.19 "Hg

Humidity: 67%

Dew Point: 27 °F

Location of ColumbusLocation

Past Weather in Columbus — Graph

°F

Columbus Temperature Yesterday

Maximum temperature yesterday: 70 °F (at 1:51 pm)
Minimum temperature yesterday: 49 °F (at 11:51 pm)
Average temperature yesterday: 62 °F

High & Low Weather Summary for the Past Weeks

 TemperatureHumidityPressure
High79 °F (Feb 24, 3:51 pm)100% (Feb 19, 7:33 am)30.28 "Hg (Feb 19, 7:33 am)
Low35 °F (Feb 17, 6:51 am)14% (Feb 25, 2:51 pm)29.58 "Hg (Feb 15, 6:51 am)
Average60 °F66%29.96 "Hg
* Reported Feb 11 5:51 am — Feb 26 5:51 am, Columbus, Weather by CustomWeather, © 2017

Note: Actual official high and low records may vary slightly from our data, if they occured in-between our weather recording intervals... More about our weather records

Advertising

Columbus Weather History for the Previous 24 Hours

Scroll right to see more
 ConditionsComfort  
Time TempWeatherWind HumidityBarometerVisibility
5:51 am
Sun, Feb 26
36 °FClear.No wind67%30.16 "Hg10 mi
4:51 am40 °FClear.No wind53%30.13 "Hg10 mi
3:51 am41 °FClear.5 mph49%30.11 "Hg10 mi
2:51 am43 °FClear.5 mph45%30.11 "Hg10 mi
1:51 am45 °FClear.3 mph42%30.11 "Hg10 mi
12:51 am47 °FClear.3 mph37%30.10 "Hg10 mi
11:51 pm
Sat, Feb 25
49 °FClear.5 mph33%30.09 "Hg10 mi
10:51 pm52 °FClear.9 mph27%30.07 "Hg10 mi
9:51 pm53 °FClear.9 mph26%30.04 "Hg10 mi
8:51 pm56 °FClear.10 mph24%30.01 "Hg10 mi
7:51 pm58 °FClear.9 mph23%29.98 "Hg10 mi
6:51 pm61 °FClear.15 mph20%29.96 "Hg10 mi
5:51 pm65 °FSunny.13 mph19%29.93 "Hg10 mi
4:51 pm67 °FSunny.14 mph16%29.90 "Hg10 mi
3:51 pm69 °FSunny.17 mph15%29.88 "Hg10 mi
2:51 pm70 °FSunny.15 mph14%29.88 "Hg10 mi
1:51 pm70 °FSunny.14 mph18%29.88 "Hg10 mi
12:51 pm69 °FSunny.14 mph21%29.89 "Hg10 mi
11:51 am67 °FSunny.14 mph23%29.91 "Hg10 mi
10:51 am65 °FSunny.13 mph28%29.90 "Hg10 mi
9:51 am62 °FScattered clouds.16 mph43%29.89 "Hg10 mi
8:51 am59 °FPartly sunny.15 mph64%29.88 "Hg10 mi
8:09 am63 °FBroken clouds.8 mph90%29.84 "Hg10 mi
7:51 am62 °FPartly sunny.6 mph90%29.82 "Hg10 mi
7:30 am61 °FCloudy.5 mph93%29.83 "Hg10 mi
7:07 am61 °FLow clouds.5 mph90%29.82 "Hg10 mi
Weather by CustomWeather, © 2017

See weather overviewHow to use our weather pages

LIVE ANNULAR SOLAR ECLIPSE – Watch the eclipse as it happens